カタログに戻る

FENGYUN 1C DEB

運用中SSO
NORAD 30151·DEBRIS·🇨🇳 China

打ち上げ May 10, 1999 から Taiyuan Satellite Launch Center

Loading…

次のパス (今後24時間)

TLE

最新Source: Space-Track

元期: Sep 14, 2026, 06:56 UTC

1 30151U 99025TG  26257.28920372  .00000392  00000-0  34885-3 0  9995
2 30151  99.0649 260.9168 0161074 257.6757 114.7594 13.84913052990598

AllMySatでFENGYUN 1C DEBをリアルタイム追跡

Download on the App Store